sat.trackr.live / text

‹ back to catalog

FLOCK 4G-2

NORAD 62661 · 2025-009BE

PAYLOAD ACTIVE UNKNOWN

§ Identity

Operator
Country
US
Launch date
2025-01-14
Launch site
AFWTR
Launch vehicle
Mass (kg)
RCS (m²)

Purposes: earth_obs

External: N2YO · Heavens-Above · Gunter

§ Orbital elements

Epoch: 2026-09-19T11:34:37.351200Z

Period
94.03 min
Inclination
97.3950°
Eccentricity
0.0003643
Mean motion
15.31486059 rev/d
Perigee alt
468.9 km
Apogee alt
473.9 km
Semi-major
6,849.5 km
B*
2.5319e-4
RAAN
344.2021°
Arg perigee
10.6174°
Mean anomaly
349.5144°
Rev number
15,095

§ Raw data

FLOCK 4G-21 62661U 25009BE  26262.48237675  .00007622  00000+0  25319-3 0  99962 62661  97.3950 344.2021 0003643  10.6174 349.5144 15.31486059150959

JSON: /api/v1/satellites/62661 · /tle

For live sub-satellite position, see the globe view (requires WebGL).

§ Visibility from observer

Set your observer location to see the next 7 days of passes ≥ 10°. The values pass through the URL so the page stays shareable.

No JS? Fill the form by hand. The geolocation button needs JavaScript.